Temperature
23 22 21 21 24 26 28 29 30 30 30 30 29 29 28 26 25 23 23 22 22 21 21 21 20 20 20 20 19 19 19 19 19 19 19 19 19 19 19 19 19 19 19 19 19 19 18 18 19
22 22 22 24 25 27 29 30 30 30 30 30 29 28 27 26 24 23 22 22 22 21 21 20 20 20 20 20 20 19 19 19 19 19 19 19 19 19 19 19 19 19 19 19 19 18 18 18 19
23 23 24 26 28 29 29 30 30 31 30 30 29 28 26 25 24 23 22 22 22 21 21 21 20 20 20 20 20 19 19 19 19 19 19 19 19 19 19 19 19 19 19 19 19 18 18 18 19
23 25 26 28 29 30 31 31 31 31 30 29 28 27 25 24 24 23 23 23 22 21 21 21 20 20 20 20 20 20 19 19 19 19 19 19 19 19 19 19 19 19 19 19 19 19 19 18 18
24 26 27 29 30 31 32 32 31 31 30 29 28 26 25 24 24 23 23 23 22 21 21 21 21 20 20 20 20 20 20 19 19 19 19 19 19 19 19 19 19 19 19 19 19 19 19 18 18
26 28 28 29 30 31 32 32 31 31 30 29 28 26 25 24 24 23 23 23 22 22 21 21 21 21 20 20 20 20 20 20 19 19 19 19 19 19 19 19 19 19 19 19 19 18 18 18 18
28 28 29 30 31 31 32 32 31 31 30 30 28 27 25 24 24 24 23 23 23 22 21 21 21 21 21 20 20 20 20 20 20 19 19 19 19 19 19 19 19 19 19 19 19 19 18 18 18
29 30 30 31 31 31 32 31 31 31 30 29 29 27 25 24 24 24 23 23 23 22 22 21 21 21 20 20 20 20 20 20 20 19 19 19 19 19 19 19 19 19 19 19 19 19 19 19 19
31 30 29 31 31 31 32 32 31 30 30 29 28 27 25 25 24 24 24 23 23 22 22 22 21 21 20 20 20 20 20 19 19 19 19 19 19 19 19 19 19 19 19 19 19 19 19 19 19
31 29 31 32 33 33 33 32 31 30 30 29 27 26 25 25 25 24 24 23 23 22 22 22 22 21 21 20 20 20 20 19 19 19 19 19 19 19 19 19 19 19 19 19 19 19 19 19 19
32 31 32 33 33 33 33 32 32 31 30 29 27 26 26 25 25 25 24 23 23 23 22 22 22 21 21 21 21 20 20 20 19 19 19 19 19 19 19 19 19 19 19 19 19 19 19 19 19
33 33 33 33 33 33 33 32 32 31 30 29 27 27 26 26 25 25 24 23 23 23 22 22 22 21 21 21 21 20 20 20 20 19 19 19 19 19 19 19 19 19 19 19 19 19 19 19 19
33 33 33 33 33 33 33 32 31 30 29 28 28 27 26 26 26 25 24 23 23 22 22 22 21 21 21 21 21 21 20 20 20 20 20 19 19 19 19 19 19 19 19 19 19 19 19 19 19
34 34 33 33 33 33 32 32 31 30 29 29 28 27 27 26 26 25 24 23 23 22 22 22 21 21 21 21 21 21 20 20 20 20 20 19 19 19 19 19 19 19 19 19 19 19 19 19 19
33 33 33 33 33 33 32 31 31 30 30 29 28 27 27 26 25 25 24 23 23 22 22 21 21 21 21 21 21 21 21 20 20 20 20 20 19 19 19 19 19 19 19 19 19 19 19 19 19
33 32 31 33 33 33 32 30 31 30 30 30 29 28 27 26 25 25 24 23 23 22 21 21 21 21 21 20 21 20 21 20 20 20 20 20 19 19 19 19 19 19 19 19 19 19 19 19 19
32 31 31 32 34 34 32 30 31 31 30 30 29 28 27 26 26 25 24 23 22 22 21 21 21 21 21 20 20 20 20 20 20 20 20 19 19 19 19 19 19 19 19 19 19 19 19 19 19
30 31 32 32 34 34 32 31 31 31 31 30 29 28 27 26 26 25 24 23 22 22 21 21 21 20 20 20 20 20 20 20 20 20 20 19 19 19 19 19 19 19 19 19 19 19 19 19 19
32 32 32 33 34 33 32 31 32 32 32 31 30 29 27 27 26 25 24 24 22 22 21 21 21 20 20 20 20 20 20 20 20 20 20 19 19 19 19 19 19 19 19 19 19 19 19 19 19
32 32 32 33 34 33 32 32 32 32 32 31 30 29 28 27 26 25 25 24 23 22 21 21 21 21 20 20 20 20 20 20 20 20 20 19 19 19 19 19 19 19 19 19 19 19 19 19 19
33 32 32 33 34 33 32 31 31 32 31 31 30 29 29 28 26 25 25 24 23 22 21 21 21 21 21 20 20 20 20 20 20 20 20 19 19 19 19 19 19 19 19 19 19 19 19 19 19
32 34 33 33 33 32 32 29 30 30 30 30 30 29 29 28 27 26 25 24 23 22 22 21 21 21 21 20 20 20 20 20 20 20 20 19 19 19 19 19 19 19 19 19 19 19 19 19 19
33 34 33 33 32 31 31 30 29 30 29 30 30 29 29 28 26 25 25 24 24 23 22 21 21 21 21 20 20 20 20 20 20 20 20 19 19 19 19 19 19 19 19 19 19 19 19 19 19
34 33 33 32 32 30 30 29 28 29 29 29 30 29 28 28 27 26 25 24 24 23 22 22 21 21 21 20 20 20 20 20 20 20 19 19 19 19 19 19 19 19 19 19 19 19 19 19 19
33 32 31 30 29 29 30 30 29 30 30 30 30 29 28 27 26 25 25 24 23 23 22 22 21 21 21 20 20 20 20 20 19 19 19 19 19 19 19 19 19 19 19 19 19 19 19 19 19
33 32 30 29 29 29 30 29 29 30 30 29 29 28 28 27 26 25 24 24 23 23 22 22 21 21 20 20 20 20 20 19 19 19 19 19 19 19 19 19 19 19 19 19 19 18 19 19 19
32 32 32 31 30 29 29 29 30 30 30 29 29 28 27 27 26 25 24 24 23 23 22 22 21 21 20 20 20 20 20 19 19 19 19 19 19 19 19 19 19 19 18 18 18 18 18 18 18
33 33 32 31 28 28 29 28 29 29 28 29 28 28 27 27 26 25 24 23 23 23 22 22 21 21 20 20 20 19 20 20 20 19 19 19 19 19 19 19 19 18 18 18 18 18 18 18 18
32 32 32 31 30 29 28 28 29 29 28 28 28 27 27 26 25 25 24 23 23 22 22 21 21 20 20 20 20 19 19 19 19 19 19 19 19 19 19 19 18 18 18 18 18 18 18 18 18
33 32 32 30 30 30 29 28 30 29 29 28 28 27 26 26 25 24 23 23 22 22 21 21 20 20 20 20 20 19 19 19 19 19 19 18 18 18 18 18 18 18 18 18 18 18 18 18 17
Wind_Speed
11 12 9 5 4 2 8 10 12 12 12 12 12 12 15 15 10 8 6 9 11 11 11 12 13 12 12 11 10 10 10 10 10 11 10 11 10 10 10 11 10 10 12 13 13 13 13 12 12
10 10 7 4 3 3 10 11 12 12 10 10 13 15 16 15 12 9 7 8 11 12 11 12 12 12 11 11 11 10 10 10 11 11 11 11 11 11 11 11 10 11 13 14 14 14 13 12 12
10 11 6 4 2 8 10 10 10 11 10 11 12 15 12 10 11 8 8 9 12 13 13 12 13 12 11 11 11 11 11 11 11 11 11 11 12 11 11 11 11 11 14 15 14 14 14 12 12
6 6 5 1 8 11 10 9 9 11 10 11 11 11 12 11 10 10 9 10 12 13 13 13 13 12 11 11 11 11 11 11 11 11 11 11 12 12 12 12 12 13 15 15 14 13 13 12 11
8 4 3 3 9 10 9 9 10 11 11 13 14 14 13 12 12 11 10 11 12 13 12 12 13 12 11 11 11 10 11 11 11 11 11 11 12 12 13 13 13 15 15 15 14 13 13 11 10
5 3 0 5 9 10 9 10 11 11 11 13 13 14 11 10 10 9 10 10 12 13 12 12 12 12 11 11 11 10 10 10 10 10 11 11 12 12 12 13 13 15 15 14 13 13 12 10 9
6 3 2 6 10 10 9 9 10 10 10 10 11 12 10 10 9 9 9 10 10 12 12 11 11 10 10 10 10 10 9 9 9 10 11 11 12 13 12 13 14 14 14 14 13 12 11 9 7
3 2 3 6 11 11 10 10 10 11 11 10 10 10 10 10 9 10 9 9 9 9 10 10 10 10 10 9 10 9 9 9 9 9 11 11 11 12 13 13 14 14 13 13 13 11 10 9 7
1 1 5 7 10 9 9 10 11 11 12 13 14 14 13 12 11 10 9 9 8 7 7 8 9 9 9 9 10 9 9 8 8 8 9 8 7 10 10 13 14 13 12 12 11 10 9 8 7
2 4 7 7 9 8 9 9 10 10 11 13 15 15 13 12 10 9 10 9 8 6 7 7 8 6 6 7 8 7 7 8 7 7 7 6 6 7 9 13 13 12 11 11 10 9 8 7 6
4 5 5 7 8 8 9 9 10 10 11 12 13 14 12 11 9 9 10 10 8 6 6 7 7 6 6 5 4 4 5 6 7 7 7 7 6 6 7 6 8 8 9 7 8 8 5 5 4
3 4 5 7 7 7 9 10 13 13 12 13 14 13 11 10 9 9 10 10 9 7 7 7 8 7 6 5 4 4 4 4 5 6 6 5 3 4 4 3 4 4 4 4 5 3 3 3 3
3 3 5 5 5 8 9 10 12 13 13 14 13 12 11 10 10 10 10 10 9 7 7 8 8 7 5 4 3 4 4 5 6 5 5 5 4 3 3 2 3 3 3 3 2 2 2 2 1
1 2 4 3 4 7 9 8 10 11 13 13 12 11 10 10 10 10 10 9 9 7 6 6 7 6 5 4 3 3 4 4 5 5 5 5 5 3 2 2 2 2 3 3 2 2 2 1 1
2 1 1 2 3 5 8 6 7 9 11 12 12 11 10 10 10 10 9 8 9 8 6 5 7 6 5 4 2 3 3 5 4 5 6 5 5 3 2 2 2 2 3 3 2 2 2 2 2
4 3 3 4 4 5 5 5 6 7 8 10 11 12 11 10 9 9 10 8 9 8 6 4 6 7 5 4 2 2 4 5 4 5 5 5 4 3 1 2 2 1 2 2 2 1 1 1 1
5 5 5 4 4 5 5 6 7 9 9 9 10 11 12 11 10 10 10 9 9 8 6 5 6 6 5 4 2 2 3 3 3 4 4 4 4 3 1 2 1 0 1 1 2 2 1 0 0
6 6 4 3 4 3 4 6 7 8 9 9 10 11 11 12 11 10 11 11 10 9 7 6 6 5 4 3 2 1 3 3 2 3 3 3 2 2 1 2 1 1 2 1 2 1 0 1 1
10 7 4 3 2 2 3 5 7 7 8 8 9 11 11 12 12 11 11 11 11 9 8 6 5 5 3 2 2 2 2 2 2 2 3 3 2 2 2 2 2 1 1 1 0 0 1 1 0
10 7 5 3 4 3 3 4 6 6 7 8 9 11 11 12 12 11 11 11 11 10 8 7 6 5 3 2 1 1 1 1 2 2 3 3 1 1 1 1 1 1 1 1 1 1 1 1 1
9 7 6 6 4 3 5 5 5 5 5 7 8 10 11 13 13 12 11 11 11 10 9 8 7 6 5 4 2 1 2 1 1 2 2 2 1 1 1 1 1 1 1 0 1 1 1 1 0
8 7 6 6 7 5 5 4 2 5 5 6 8 9 9 10 12 12 11 10 10 10 9 8 7 5 4 4 3 3 2 2 2 2 2 2 1 1 1 1 1 1 1 1 1 1 1 1 1
7 6 7 8 9 9 6 4 3 6 5 6 6 7 8 10 11 10 10 10 10 10 9 9 8 5 4 4 3 2 2 2 1 2 2 1 1 1 1 1 1 1 2 1 2 2 2 1 1
7 9 10 9 9 9 6 5 3 6 7 7 8 8 7 8 10 10 9 9 8 9 9 9 8 6 4 3 3 2 2 1 1 2 1 1 1 1 2 2 1 1 1 0 0 1 1 2 2
10 9 6 6 7 6 4 3 3 6 8 6 8 8 9 8 8 7 8 8 8 8 8 8 8 6 5 4 3 2 2 2 1 1 1 1 1 1 1 1 1 1 1 0 1 1 1 1 1
9 9 7 7 6 4 2 1 5 8 9 9 8 8 10 9 8 7 6 7 7 7 7 8 8 6 6 5 4 3 3 2 1 1 1 1 0 1 1 2 1 1 1 0 1 0 1 0 1
9 9 9 9 8 7 2 3 6 8 9 9 8 8 10 9 10 9 6 7 7 7 7 7 7 6 5 5 4 3 2 1 0 0 0 1 1 0 1 1 1 1 0 0 0 0 0 0 1
11 9 6 6 4 7 4 3 3 7 8 8 7 9 9 9 10 9 8 5 6 6 6 6 7 6 5 5 4 4 3 2 1 1 1 0 1 1 1 1 1 0 0 0 1 1 0 1 1
10 10 8 6 6 6 5 1 5 7 7 7 7 7 9 8 8 8 8 6 5 6 6 5 6 6 6 5 4 3 3 3 2 2 1 1 1 1 1 0 0 1 1 1 1 1 1 1 1
11 10 10 8 7 7 6 1 4 6 8 7 6 8 6 8 8 8 8 7 5 5 5 4 4 4 4 4 4 3 3 2 2 1 1 1 1 1 1 1 1 1 1 1 1 2 1 1 2
Wind_Direction
184 197 207 231 251 244 67 63 61 59 57 54 54 59 58 54 59 83 78 76 87 88 86 80 71 65 61 61 63 64 65 65 68 76 82 87 91 95 106 106 106 113 128 129 126 124 123 128 131
204 208 221 246 256 71 73 68 64 65 65 66 64 64 65 62 73 91 85 81 89 91 86 80 77 67 64 65 65 67 70 68 71 78 83 87 91 94 101 109 109 113 124 128 123 122 121 123 130
237 241 254 243 41 65 72 74 76 76 70 71 70 61 61 71 76 91 103 101 92 90 90 88 82 74 71 70 69 69 72 71 75 80 84 87 89 94 103 107 110 117 124 126 125 126 125 126 130
238 236 244 277 63 64 72 78 81 79 75 75 76 72 66 67 85 101 107 99 97 97 96 96 90 83 78 74 72 72 72 75 79 85 86 88 89 93 100 103 103 112 120 121 120 122 127 126 129
239 257 251 76 75 71 68 76 77 74 75 78 83 87 81 82 97 106 107 100 97 96 100 104 98 91 86 82 78 75 76 77 81 86 88 92 93 96 99 100 102 111 116 115 115 118 117 118 121
261 258 247 84 81 77 72 73 78 80 82 90 93 93 92 104 106 106 102 102 103 106 109 111 106 97 93 89 84 82 81 81 84 90 91 91 93 95 101 105 108 114 114 118 116 114 112 113 120
258 284 85 86 83 79 76 71 75 80 76 82 97 99 103 107 109 110 104 102 104 108 112 120 120 112 104 98 94 94 91 88 92 99 99 97 95 96 103 109 108 112 114 115 115 118 120 121 122
256 317 62 80 83 77 79 80 80 82 76 81 90 100 112 124 126 117 111 102 100 105 111 118 122 123 121 114 106 105 103 100 102 106 108 108 107 106 112 115 113 115 117 119 123 128 133 138 142
298 1 58 67 81 87 93 92 86 82 84 79 80 97 116 129 129 123 116 105 96 92 100 104 110 117 121 118 118 121 116 112 111 111 116 113 107 105 115 116 120 125 126 128 132 139 147 153 162
65 60 68 71 82 90 89 94 100 97 92 91 93 103 118 126 128 127 120 113 102 95 97 99 94 100 105 105 119 128 120 118 116 103 106 111 103 107 111 119 126 132 135 138 149 158 165 174 178
88 93 80 82 81 88 90 93 96 95 100 109 114 118 123 124 124 121 117 112 110 107 98 96 93 86 85 89 104 100 102 111 112 111 113 112 111 116 117 127 134 143 148 153 157 170 181 170 168
88 87 79 75 82 82 85 85 85 86 93 109 117 122 126 125 123 121 115 111 108 96 90 87 86 79 65 66 70 95 94 97 96 95 88 96 101 103 111 119 132 143 140 148 157 159 161 152 158
88 89 89 83 80 86 84 86 93 97 104 111 119 124 127 125 120 112 107 108 104 97 89 82 78 77 73 58 42 77 84 84 92 94 89 90 90 86 94 101 115 121 124 127 116 121 123 121 147
138 83 83 93 94 95 90 91 102 108 117 120 124 127 130 125 119 115 113 114 114 108 94 91 93 93 92 83 59 67 87 99 97 97 90 90 100 91 95 98 93 104 107 111 113 114 117 102 85
253 108 125 137 140 128 110 97 101 121 125 130 132 134 132 125 122 120 120 120 118 113 104 97 104 101 98 100 89 90 99 100 91 97 95 84 92 92 94 98 99 107 122 121 122 140 148 144 141
247 224 208 201 192 166 133 121 129 141 137 134 138 139 135 129 130 126 126 125 119 116 112 115 109 103 100 96 85 65 78 89 95 108 106 92 92 96 98 89 90 113 125 134 121 87 73 90 114
248 242 222 201 211 165 144 142 150 159 149 143 144 145 144 141 138 133 134 130 122 117 116 108 99 109 117 118 110 81 79 77 87 101 101 100 98 88 83 88 77 140 82 59 82 84 54 52 113
265 251 228 213 192 172 147 139 153 165 153 149 151 149 151 149 146 142 140 133 127 122 122 119 114 112 116 121 117 84 81 86 84 85 92 94 84 85 41 98 60 49 59 43 54 71 162 237 250
259 264 248 225 182 192 165 155 159 167 160 154 155 152 159 155 149 146 145 138 133 129 130 132 127 122 129 124 129 127 126 128 123 115 97 95 71 55 41 48 54 56 78 64 47 295 238 208 102
258 265 275 229 180 213 207 195 178 172 170 160 156 155 161 153 147 149 150 144 140 139 140 135 134 135 142 122 121 128 122 120 113 94 100 102 88 48 98 55 43 52 88 39 273 239 264 223 148
256 249 254 265 236 219 238 227 173 163 153 146 149 152 163 156 153 156 155 149 146 144 147 151 148 148 158 150 149 123 120 96 99 118 120 110 107 80 40 54 45 332 71 291 237 298 231 270 215
260 269 273 271 275 255 255 250 180 160 158 168 169 158 155 147 147 158 160 157 154 151 151 145 144 152 155 160 164 163 155 144 142 127 118 118 120 112 102 81 75 18 39 343 301 15 301 271 268
264 280 279 276 279 275 260 248 198 156 170 172 156 145 148 142 142 149 154 156 155 153 153 148 145 148 149 168 170 171 150 128 135 124 114 132 155 162 108 84 67 68 73 27 354 16 350 355 334
254 258 259 260 264 263 260 259 205 165 171 168 142 135 132 134 137 141 141 139 142 146 147 146 143 145 151 164 155 154 152 149 129 114 138 188 158 159 139 136 99 74 104 109 17 357 32 21 356
246 254 263 262 254 256 242 233 158 137 140 144 139 140 134 122 117 126 135 142 139 137 142 138 140 149 152 156 153 161 171 171 157 196 201 231 186 153 121 127 124 122 178 182 75 64 40 18 347
249 256 261 276 280 282 287 220 127 122 131 129 130 139 132 128 126 121 130 140 143 142 137 139 141 151 161 164 167 170 176 194 195 234 280 264 4 72 108 113 149 178 218 164 108 188 176 62 306
249 255 265 274 281 282 245 145 136 116 117 123 133 137 135 135 131 126 122 135 138 142 136 140 145 155 162 159 160 164 178 217 232 198 303 334 340 323 87 108 121 104 72 27 11 295 325 331 299
248 263 280 279 277 274 260 227 151 131 132 132 129 136 129 131 136 133 127 119 136 136 131 138 148 157 160 162 175 174 171 188 203 246 148 103 1 14 47 41 51 28 312 325 251 267 298 166 232
230 246 257 271 278 281 277 226 140 144 130 131 134 126 128 128 122 119 124 128 118 119 124 124 147 157 160 167 176 168 166 184 201 212 198 162 198 227 209 219 281 284 313 315 304 270 270 277 272
244 248 252 251 255 264 273 263 123 132 130 121 125 126 124 126 122 121 117 109 103 99 104 111 133 150 160 160 160 163 162 178 195 191 173 204 203 225 233 230 253 256 274 300 298 292 272 278 293
Height
1480 1480 1481 1484 1483 1480 1475 1469 1463 1465 1466 1468 1468 1469 1473 1478 1484 1495 1495 1493 1493 1491 1490 1489 1488 1487 1485 1484 1484 1483 1481 1479 1478 1477 1477 1479 1481 1482 1483 1484 1485 1486 1488 1492 1495 1499 1502 1505 1507
1480 1482 1485 1483 1481 1483 1477 1467 1467 1467 1468 1469 1471 1473 1477 1483 1488 1493 1494 1495 1494 1493 1492 1491 1490 1489 1487 1486 1486 1484 1483 1482 1481 1480 1481 1482 1483 1483 1484 1485 1486 1486 1489 1493 1497 1500 1503 1505 1508
1481 1484 1484 1478 1475 1476 1476 1467 1467 1467 1469 1471 1474 1478 1482 1488 1491 1494 1496 1496 1496 1494 1494 1493 1492 1491 1490 1488 1487 1486 1485 1484 1483 1483 1484 1484 1485 1485 1486 1486 1486 1487 1490 1495 1498 1501 1504 1507 1508
1482 1483 1481 1475 1474 1467 1466 1466 1466 1468 1471 1473 1476 1482 1488 1492 1494 1496 1497 1497 1497 1496 1495 1495 1494 1493 1492 1491 1489 1488 1487 1486 1486 1485 1486 1487 1487 1488 1487 1487 1485 1485 1491 1497 1500 1503 1505 1507 1510
1483 1481 1478 1475 1470 1465 1464 1465 1467 1470 1472 1475 1479 1486 1492 1495 1496 1497 1498 1499 1498 1498 1497 1496 1496 1495 1494 1492 1491 1490 1489 1488 1488 1488 1488 1489 1489 1489 1489 1490 1489 1490 1495 1500 1503 1505 1508 1510 1512
1481 1475 1480 1479 1471 1466 1465 1467 1468 1471 1474 1477 1481 1487 1494 1497 1498 1499 1499 1500 1500 1500 1499 1498 1498 1497 1496 1495 1494 1492 1491 1491 1491 1491 1491 1492 1492 1491 1491 1492 1494 1496 1500 1503 1506 1508 1511 1513 1515
1479 1475 1476 1472 1470 1469 1467 1468 1470 1473 1475 1478 1481 1488 1495 1498 1499 1500 1501 1501 1502 1502 1501 1500 1500 1499 1498 1498 1496 1495 1494 1494 1493 1494 1494 1495 1494 1492 1493 1495 1498 1501 1504 1506 1509 1511 1514 1516 1517
1474 1472 1473 1470 1471 1472 1469 1470 1472 1474 1477 1480 1482 1487 1495 1498 1499 1500 1502 1503 1503 1504 1503 1503 1503 1502 1501 1500 1500 1499 1498 1497 1497 1497 1498 1498 1498 1497 1497 1500 1502 1505 1508 1510 1512 1514 1516 1518 1520
1472 1475 1479 1472 1470 1471 1469 1471 1474 1477 1479 1482 1485 1489 1494 1498 1499 1501 1503 1504 1505 1506 1506 1506 1506 1505 1505 1504 1503 1502 1501 1501 1501 1502 1502 1503 1503 1503 1503 1505 1508 1510 1512 1514 1515 1517 1519 1521 1523
1472 1478 1474 1467 1466 1467 1469 1471 1474 1478 1481 1485 1489 1493 1496 1498 1500 1501 1503 1505 1506 1507 1508 1508 1508 1508 1508 1507 1506 1506 1506 1506 1506 1506 1507 1507 1508 1509 1510 1511 1512 1514 1515 1517 1519 1520 1522 1523 1525
1471 1474 1468 1467 1467 1468 1469 1471 1474 1477 1482 1487 1490 1494 1497 1499 1500 1502 1504 1506 1507 1509 1509 1510 1510 1510 1510 1510 1510 1510 1510 1510 1510 1510 1511 1511 1512 1512 1513 1514 1515 1517 1518 1519 1521 1523 1524 1525 1526
1470 1469 1468 1468 1469 1469 1471 1473 1476 1480 1485 1488 1492 1495 1497 1499 1501 1502 1504 1507 1509 1510 1511 1511 1512 1512 1512 1512 1512 1513 1513 1513 1514 1514 1514 1515 1515 1516 1516 1517 1518 1519 1521 1522 1523 1524 1526 1527 1528
1470 1470 1469 1470 1470 1471 1473 1475 1479 1483 1487 1490 1493 1496 1498 1500 1502 1504 1506 1508 1510 1511 1512 1513 1513 1513 1513 1513 1514 1515 1515 1516 1516 1517 1517 1517 1518 1518 1519 1519 1520 1521 1523 1524 1525 1526 1527 1528 1529
1470 1470 1470 1471 1471 1472 1474 1478 1480 1484 1487 1491 1494 1497 1499 1501 1503 1505 1507 1509 1511 1512 1513 1514 1514 1514 1515 1515 1516 1516 1517 1518 1519 1519 1519 1520 1520 1520 1520 1521 1522 1523 1524 1525 1526 1527 1528 1529 1530
1470 1472 1472 1471 1471 1472 1475 1481 1481 1484 1487 1490 1494 1497 1500 1502 1504 1507 1508 1510 1511 1513 1514 1514 1515 1516 1516 1517 1517 1519 1519 1520 1520 1520 1521 1521 1522 1522 1522 1523 1524 1524 1525 1526 1526 1527 1528 1529 1530
1471 1475 1481 1471 1469 1470 1476 1489 1482 1484 1486 1489 1493 1496 1500 1503 1505 1507 1509 1511 1512 1513 1514 1515 1516 1516 1517 1518 1519 1520 1521 1521 1522 1522 1522 1523 1523 1523 1524 1524 1525 1526 1526 1526 1527 1528 1528 1529 1530
1476 1484 1480 1473 1466 1466 1472 1483 1480 1482 1484 1488 1491 1495 1499 1502 1505 1507 1509 1511 1512 1513 1515 1516 1517 1517 1518 1519 1520 1521 1522 1523 1524 1524 1524 1524 1524 1524 1525 1525 1525 1526 1526 1527 1527 1527 1528 1529 1530
1485 1480 1476 1474 1465 1465 1472 1477 1477 1479 1481 1485 1489 1493 1497 1501 1504 1507 1509 1511 1512 1513 1515 1516 1517 1518 1519 1520 1521 1522 1523 1524 1524 1525 1525 1525 1525 1525 1525 1526 1525 1526 1526 1526 1527 1527 1528 1529 1529
1473 1474 1476 1469 1462 1466 1472 1476 1475 1476 1479 1483 1487 1491 1495 1499 1503 1506 1509 1511 1512 1514 1515 1516 1517 1518 1520 1521 1522 1523 1524 1525 1525 1525 1525 1525 1525 1526 1526 1526 1526 1526 1526 1526 1527 1527 1528 1528 1529
1472 1474 1474 1466 1461 1466 1472 1473 1471 1473 1476 1480 1484 1489 1493 1497 1502 1505 1508 1510 1512 1514 1515 1516 1517 1518 1520 1521 1522 1523 1524 1525 1526 1526 1526 1526 1526 1526 1526 1525 1526 1526 1526 1526 1527 1527 1527 1528 1529
1470 1472 1472 1471 1463 1465 1472 1478 1474 1473 1476 1480 1483 1487 1490 1495 1499 1503 1507 1509 1511 1513 1514 1516 1517 1518 1520 1521 1522 1524 1525 1525 1526 1526 1526 1526 1526 1526 1525 1526 1526 1526 1526 1526 1526 1527 1527 1527 1528
1473 1462 1464 1466 1471 1476 1474 1493 1482 1476 1477 1480 1482 1485 1488 1493 1497 1501 1505 1508 1510 1512 1514 1516 1517 1518 1520 1521 1522 1523 1525 1525 1526 1526 1526 1526 1526 1526 1526 1526 1526 1526 1526 1525 1526 1526 1526 1526 1527
1465 1460 1463 1465 1471 1477 1476 1487 1487 1476 1482 1481 1480 1483 1487 1491 1495 1499 1504 1507 1509 1512 1514 1515 1516 1518 1519 1520 1522 1523 1525 1525 1526 1526 1526 1526 1526 1526 1526 1526 1525 1525 1525 1525 1525 1525 1525 1525 1525
1460 1463 1464 1466 1473 1490 1483 1488 1493 1480 1481 1480 1480 1484 1487 1491 1495 1499 1502 1505 1508 1510 1512 1514 1515 1517 1518 1520 1521 1522 1524 1525 1525 1526 1526 1526 1526 1526 1525 1525 1525 1525 1525 1525 1525 1524 1524 1525 1525
1461 1472 1487 1493 1495 1493 1475 1483 1487 1473 1473 1477 1480 1484 1488 1492 1495 1499 1502 1504 1506 1509 1511 1513 1514 1516 1517 1519 1520 1522 1523 1524 1524 1525 1525 1525 1526 1525 1525 1525 1525 1524 1524 1524 1524 1524 1524 1524 1525
1463 1468 1490 1504 1502 1491 1479 1485 1479 1470 1472 1476 1481 1485 1488 1492 1495 1498 1502 1504 1505 1507 1509 1511 1513 1515 1517 1518 1519 1521 1522 1523 1524 1524 1524 1525 1525 1525 1525 1524 1524 1524 1524 1524 1524 1523 1524 1524 1524
1465 1467 1463 1477 1482 1491 1486 1482 1474 1469 1472 1475 1480 1484 1488 1491 1494 1498 1501 1503 1505 1506 1507 1510 1512 1514 1516 1517 1518 1520 1521 1522 1522 1523 1523 1524 1524 1524 1524 1523 1523 1523 1523 1523 1523 1523 1523 1523 1523
1458 1459 1467 1478 1497 1503 1494 1489 1484 1478 1477 1476 1480 1483 1486 1490 1494 1498 1500 1503 1505 1506 1507 1509 1511 1513 1514 1516 1517 1519 1519 1520 1521 1521 1522 1522 1523 1523 1522 1522 1522 1522 1522 1522 1522 1522 1522 1522 1522
1461 1463 1466 1471 1477 1494 1503 1496 1472 1474 1476 1479 1480 1483 1486 1490 1493 1497 1500 1502 1504 1506 1508 1509 1510 1512 1514 1515 1516 1517 1518 1518 1519 1519 1520 1521 1521 1521 1521 1521 1521 1521 1521 1521 1521 1521 1521 1521 1521
1455 1459 1464 1478 1482 1478 1489 1492 1467 1471 1473 1478 1481 1484 1488 1491 1493 1496 1499 1502 1504 1505 1507 1508 1509 1511 1512 1513 1514 1515 1516 1517 1517 1518 1518 1519 1519 1519 1519 1519 1519 1519 1519 1520 1519 1519 1519 1519 1519